{"data":{"norad_id":62474,"intl_designator":"2024-254N","name":"STARLINK-11502 [DTC]","alt_names":[],"object_type":"PAYLOAD","status":"ACTIVE","operator":null,"country":"US","launch_date":"2024-12-31","launch_site_code":"AFETR","launch_vehicle":null,"mission":null,"orbit_class":"UNKNOWN","rcs_meters":null,"size_class":null,"mass_kg":null,"dimensions":null,"purposes":["comms"],"wikipedia_slug":null,"has_3d_model":false,"image_url":null,"decayed_at":null,"tle_current":{"epoch":"2026-09-20T21:37:47.396064Z","epoch_age_seconds":139905,"freshness":"FRESH","line1":"1 62474U 24254N   26263.90124301  .00118908  00000+0  91668-3 0  9998","line2":"2 62474  43.0004 126.2445 0001538 255.7264 104.3433 15.70847445100103","mean_motion":15.70847445,"eccentricity":0.0001538,"inclination_deg":43.0004,"raan_deg":126.2445,"arg_perigee_deg":255.7264,"mean_anomaly_deg":104.3433,"bstar":0.00091668,"rev_number":10010,"period_min":91.670264008355,"perigee_km":355.43799931091,"apogee_km":357.50956558759,"semimajor_km":6734.6107824493,"source":"CELESTRAK","updated_at":"2026-09-22T09:00:49.613495Z"}}}